Location: Capannuccia
(43.7000°N, 11.3000°E)
Time: 18:54:27
(UTC+00:00)

ADEOS II - Pass Details

Date: 07 June 2020
Orbit: 799 x 801 km, 98.5° (Epoch: 02 July)

Event Time Altitude Azimuth Distance (km) Brightness Sun altitude
Rises 02:43:31 0° 3° (N) 3,318 6.1 -8.0°
Reaches altitude 10° 02:46:07 10° 353° (N) 2,384 5.1 -7.6°
Maximum altitude 02:50:34 29° 295° (WNW) 1,451 3.2 -7.0°
Drops below altitude 10° 02:54:59 10° 237° (WSW) 2,371 3.9 -6.4°
Enters shadow 02:55:36 - 234° (SW) 2,581 4.0 -6.3°
